Laredo, TX

2:40 PM CST on November 19, 2017 (GMT -0600)
Laredo International

Weather History for KLRD - May, 2012

Change the Weather History Date:

Monday, May 28, 2012

  Actual Average Record
Temperature  
Mean Temperature 89 °F 85 °F  
Max Temperature 101 °F 96 °F 112 °F (2011)
Min Temperature 77 °F 74 °F 60 °F (1918)
Degree Days  
Heating Degree Days 0 0  
Month to date heating degree days 0 0  
Since 1 July heating degree days 674 926  
Cooling Degree Days 24 20  
Month to date cooling degree days 519 483  
Year to date cooling degree days 1444 1083  
Growing Degree Days 38 (Base 50)    
Moisture  
Dew Point 67 °F    
Average Humidity 54    
Maximum Humidity 79    
Minimum Humidity 32    
Precipitation  
Precipitation 0.00 in 0.09 in 2.25 in (1914)
Month to date precipitation 1.34 2.24  
Year to date precipitation 2.61 6.62  
Sea Level Pressure  
Sea Level Pressure 29.82 in    
Wind  
Wind Speed 13 mph (SSE)    
Max Wind Speed 22 mph    
Max Gust Speed 27 mph    
Visibility 10 miles    
Events      
T = Trace of Precipitation, MM = Missing Value Source: NWS Daily Summary

Daily Weather History Graph

Daily Weather History Graph

Search for Another Location

Airport or City:

Trip Planner

Search our weather history database for the weather conditions in past years. The results will help you decide how hot, cold, wet, or windy it might be!

Date:

Astronomy

May. 28, 2012 Rise Set
Actual Time 6:43 AM CDT 8:27 PM CDT
Civil Twilight 6:17 AM CDT 8:53 PM CDT
Nautical Twilight 5:46 AM CDT 9:24 PM CDT
Astronomical Twilight 5:13 AM CDT 9:57 PM CDT
Moon 1:30 PM CDT (5/28) 1:27 AM CDT (5/28)
Length of Visible Light 14h 35m
Length of Day
13h 43m
Waxing Crescent, 49% of the Moon is Illuminated
May 28
Waxing Crescent
May 28
First Quarter
Jun 4
Full
Jun 11
Last Quarter
Jun 19
New

Hourly Weather History & Observations

Time (CDT) Temp. Heat Index Dew Point Humidity Pressure Visibility Wind Dir Wind Speed Gust Speed Precip Events Conditions
12:56 AM 81.9 °F 83.9 °F 65.8 °F 58% 29.84 in 10.0 mi SSE 16.1 mph - N/A   Clear
1:56 AM 79.9 °F - 66.9 °F 64% 29.83 in 10.0 mi SSE 13.8 mph - N/A   Clear
2:56 AM 77.9 °F - 68.0 °F 71% 29.83 in 10.0 mi SSE 12.7 mph - N/A   Clear
3:56 AM 77.9 °F - 70.0 °F 76% 29.83 in 10.0 mi SSE 16.1 mph - N/A   Partly Cloudy
4:56 AM 77.0 °F - 70.0 °F 79% 29.82 in 10.0 mi SSE 13.8 mph - N/A   Partly Cloudy
5:56 AM 77.0 °F - 70.9 °F 81% 29.83 in 10.0 mi SSE 11.5 mph - N/A   Partly Cloudy
6:56 AM 77.0 °F - 70.9 °F 81% 29.84 in 10.0 mi SSE 10.4 mph - N/A   Scattered Clouds
7:56 AM 79.0 °F - 70.9 °F 76% 29.85 in 10.0 mi SSE 13.8 mph - N/A   Partly Cloudy
8:56 AM 81.9 °F 85.6 °F 70.0 °F 67% 29.87 in 10.0 mi SSE 17.3 mph 21.9 mph N/A   Scattered Clouds
9:56 AM 84.9 °F 89.4 °F 70.0 °F 61% 29.87 in 10.0 mi SSE 13.8 mph - N/A   Partly Cloudy
10:56 AM 86.9 °F 91.0 °F 68.9 °F 55% 29.87 in 10.0 mi SSE 13.8 mph - N/A   Scattered Clouds
11:56 AM 90.0 °F 93.6 °F 68.0 °F 48% 29.86 in 10.0 mi SSE 11.5 mph 18.4 mph N/A   Clear
12:56 PM 91.9 °F 95.9 °F 68.0 °F 45% 29.85 in 10.0 mi ESE 8.1 mph - N/A   Clear
1:56 PM 95.0 °F 99.0 °F 66.9 °F 40% 29.83 in 10.0 mi SSE 9.2 mph - N/A   Partly Cloudy
2:56 PM 97.9 °F 101.5 °F 65.8 °F 35% 29.81 in 10.0 mi SE 8.1 mph 18.4 mph N/A   Clear
3:56 PM 99.0 °F 102.3 °F 64.9 °F 33% 29.78 in 10.0 mi SE 15.0 mph - N/A   Clear
4:56 PM 99.9 °F 103.3 °F 64.9 °F 32% 29.76 in 10.0 mi SE 12.7 mph 20.7 mph N/A   Clear
5:56 PM 99.0 °F 102.3 °F 64.9 °F 33% 29.75 in 10.0 mi SE 15.0 mph - N/A   Clear
6:56 PM 97.9 °F 100.9 °F 64.9 °F 34% 29.77 in 10.0 mi SE 12.7 mph - N/A   Clear
7:56 PM 95.0 °F 97.4 °F 64.9 °F 37% 29.76 in 10.0 mi SE 12.7 mph - N/A   Clear
8:56 PM 92.8 °F 95.2 °F 64.9 °F 40% 29.80 in 10.0 mi SSE 10.4 mph - N/A   Clear
9:56 PM 90.9 °F 93.1 °F 65.8 °F 43% 29.80 in 10.0 mi SSE 10.4 mph - N/A   Clear
10:56 PM 88.9 °F 91.0 °F 65.8 °F 46% 29.81 in 10.0 mi SSE 13.8 mph - N/A   Clear
11:56 PM 86.0 °F 88.8 °F 66.9 °F 53% 29.81 in 10.0 mi SSE 16.1 mph - N/A   Clear